Terug naar catalogus

DELTA 1 DEB

ActiefSSO
NORAD 9570·DEBRIS·🇺🇸 United States

Gelanceerd Nov 6, 1973 vanaf Vandenberg Space Force Base

Loading…

Volgende Passages (komende 24 uur)

TLE

VersSource: Space-Track

Epoch: Sep 14, 2026, 13:53 UTC

1 09570U 73086FX  26257.57858032 -.00000029  00000-0  10528-3 0  9996
2 09570 101.7481 195.6092 0067427 210.2014 326.3769 12.41297282388961

Volg DELTA 1 DEB in realtime met AllMySat

Download on the App Store